Regional Weather Roundup
Issued by NWS

Home | Current Version | Previous Version | Graphics & Text | Print | Product List | Glossary On
Versions: 1 2 3 4 5 6 7 8 9 10 11 12 13 14 15 16 17 18 19 20 21 22 23 24 25 26 27 28 29 30 31 32 33 34 35 36 37 38 39 40 41 42 43 44 45 46 47 48 49 50
767
ASUS43 KLMK 041802
RWRKY
KENTUCKY REGIONAL WEATHER ROUNDUP
NATIONAL WEATHER SERVICE LOUISVILLE KY
100 PM EST SUN DEC 04 2016

NOTE "FAIR" INDICATES FEW OR NO CLOUDS BELOW 12,000 FEET
WITH NO SIGNIFICANT WEATHER AND/OR OBSTRUCTIONS TO VISIBILITY.

KYZ001>023-026-027-061>063-070>075-041900-
WESTERN AND SOUTH CENTRAL KENTUCKY

CITY           SKY/WX    TMP DP  RH WIND       PRES   REMARKS
PADUCAH        CLOUDY    44  41  89 SW3       29.97F FOG
HENDERSON      CLOUDY    43  39  87 S5        29.97F
OWENSBORO      LGT RAIN  45  42  89 S9        29.96F FOG
HOPKINSVILLE   CLOUDY    45  45 100 SE9       29.94F
BOWLING GREEN  CLOUDY    47  44  90 SE8       29.97F
GLASGOW        NOT AVBL
$$

KYZ024-025-028>034-038-045-046-053-041900-
NORTH CENTRAL KENTUCKY

CITY           SKY/WX    TMP DP  RH WIND       PRES   REMARKS
LOUISVILLE/SDF CLOUDY    49  37  63 SE13      29.98F
LOUISVILLE/LOU CLOUDY    48  38  68 SE8       29.99F
FORT KNOX      CLOUDY    45  40  83 E8        29.95F
$$

KYZ035>037-039>044-047>052-055>060-089>105-041900-
NORTHEAST KENTUCKY

CITY           SKY/WX    TMP DP  RH WIND       PRES   REMARKS
LEXINGTON      CLOUDY    46  35  65 SE7       30.00F
COVINGTON      CLOUDY    43  31  62 E9        30.01F
FRANKFORT      CLOUDY    47  36  65 SE13      29.98F
$$

KYZ054-064>069-076>088-106>120-041900-
SOUTHEAST KENTUCKY

CITY           SKY/WX    TMP DP  RH WIND       PRES   REMARKS
JACKSON        CLOUDY    42  33  70 SE5       30.04F
LONDON         LGT RAIN  42  39  89 SE3       30.02F
SOMERSET       NOT AVBL
MIDDLESBORO    LGT RAIN  44  43  97 SE3       30.06F
MONTICELLO     LGT RAIN  45  43  93 E8        30.02F FOG
$$





USA.gov is the U.S. government's official web portal to all federal, state and local government web resources and services.